SL-12 R/B(2), 18634

Orbit data source: Space-Track

SL-12 R/B(2), 18634 is space debris in GEO originally from a launch on Thu, 10 Dec 1987 UTC launched from the Tyuratam Missile And Space Complex (TTMTR). Debris objects in space refer to the collection of defunct objects orbiting the Earth. Examples of debris include non-operational satellites, rocket bodies, and fragments generated from explosions, collisions, or faulty payload assembly.

Not visible in the next 10 days
Identifier
18634, 1987-100D
Orbit
GEO
Country
Flag of CISCIS
Related business
Manufacturer
NPO Energiya
Mission
Spacecraft
Bus & Motor
BLOK DM, Unknown motor
Mass
2,440 kg wet, 2,440 kg dry
Launch date (UTC)
1987-12-10 (38 years ago)
Launch vehicle
Unknown
Launch site
Tyuratam Missile And Space Complex (TTMTR)
Object type
Payload
Rocket body
Debris
Shape & HBR
Cyl, 3.1 m
Radar Cross Section
23.597 m², Large (>1 m²)

Expand to show TLE details & history
Last TLE update: 15 hours ago

TLE from 15 hours ago
0 SL-12 R/B(2)
1 18634U 87100D   25340.79142133 -.00000032  00000-0  00000-0 0  9998
2 18634  10.0365 321.0468 0017929 267.3482 285.8157  1.03399573143489
Epoch: 2025-12-06T18:59Z
TLE epoch observation values (Epoch: 2025-12-06T18:59:38.802Z)
Latitude
-2.24536°
Longitude
153.06856°
Altitude
34,911.975 km
Speed
3.108 km/s
True Right ascension
10h 15m 10s
True Declination
-2° 14' 35"
Sunlit
Object was in daylight at epoch
Visualization orbit readout
Latitude
Unknown
Longitude
Unknown
Altitude
Unknown
Speed
Unknown
Apparent Right ascension
Unknown
Apparent Declination
Unknown
Sunlit
N/A
Visualization observer readout
Local Sidereal Time
07:41:33
Azimuth
Unknown
Elevation
Unknown
Doppler factor
Unknown
Orbital elements
Apogee altitude
35,007.05 km
Perigee altitude
34,858.917 km
Semi-major axis
41,311.121 km
Eccentricity
0.00179
Inclination
10.0365°
RAAN
321.0468°
Arg. of periapsis
267.3482°
True anomaly
285.61791°
Mean anomaly
285.8157°
Eccentric anomaly
285.71682°
Mean motion
0.25849 °/min
Orbital period
1,392.71 mins
BSTAR
0
Loading maneuver chart data...
Computing Atmospheric mass density...
Loading historical data...
Loading historical data...
Loading historical data...
Loading historical data...
Loading historical data...
Loading historical data...
Loading historical data...

Documentation

Showing up to 5 results
|